FENGYUN 1C DEB

Satellite information

Favourite Embed

Satellite Type and Status

DEBRISIN ORBIT

Key statistics

Satellite FENGYUN 1C DEB at a glance.

Uptime

9554

Days in orbit

Revolutions

≈ 14.3

Per day

Orbit

SSO

Sun Synchronous Orbit

Inclination

98.3

Latest

Satellite identification and parameters

Extended collection of information and parameters for FENGYUN 1C DEB.

Object identification

Identified? True

Debris? True

Object name: FENGYUN 1C DEB

International designator: 1999-025EQW

Object number (NORAD): 38149

Object ID (CCSDS): 38149

Country: PEOPLES REPUBLIC OF CHINA (PRC)

Current information (Y/N): Y

RCS size: SMALL

Orbital parameters

Period: 101.005 minutes

Inclination: 98.3462 deg

SMA: 7184.361 km

Apoapsis: 861.253 km

Periapsis: 751.2 km

RAAN: 184.9998 deg

Eccentricy: 0.0076592

Argument of periapsis: 276.8225 deg

Mean anomaly: 82.4246 deg

Mean motion: 14.25674963 rev/day

Mean motion (dot): 0.0000033 rev/day2

B* drag term: 0.00015232 1/REarth

Two-line elements (TLE)

Creation date: July 4, 2025, 6:39 p.m.

Reference frame: TEME

Reference center: EARTH

Epoch: July 4, 2025, 5:23 a.m. UTC

TLE line 0: 0 FENGYUN 1C DEB

TLE line 1: 1 38149U 99025EQW 25185.22488481 .00000330 00000-0 15232-3 0 9990

TLE line 2: 2 38149 98.3462 184.9998 0076592 276.8225 82.4246 14.25674963681860

Live tracking on map

Real-time ground track for satellite FENGYUN 1C DEB.

In-orbit conjunctions

A list of the most updated potential collisions computed for object FENGYUN 1C DEB.

Target Orbit TCA Probability of collision Miss distance Type
CZ-6A DEB LEO 2024-10-31 14:27:43 0.0001266391 965.0 (m) DEBRIS
SL-14 DEB LEO 2024-09-21 17:56:39 0.0004101229 55.0 (m) DEBRIS

Associated space launch

Chinese polar orbiting meteorological satellite

FENGYUN 1C DEB was lifted into orbit during the mission ‘Long March 4B | Feng Yun 1C’, on board a Long March 4B space rocket.

The launch took place on May 10, 1999, 1:33 a.m. from Launch Complex 7.

For more information about the launch, click the button.

Launch to space Long March 4B | Feng Yun 1C
Long March 4B | Feng Yun 1C

Agency: N/A

Status: Launch Successful

Launch date: May 10, 1999, 1:33 a.m. UTC

Rocket: Long March 4B

Launch pad: Launch Complex 7

Location: Taiyuan Satellite Launch Center, People's Republic of China

...

Latest news about this satellite

There are no fresh news available about this satellite. Check back as we update our databases every day.


Newsletter sign-up

Weekly statistics, charts and insights to help you stay on top of the space industry.